VK2OU Weather Reports


Display with metric or nautical units.
time (UTC)temp
F
wind
direction
speed
MPH
gust
MPH
rain 1hr
in
rain 24hr
in
rain mn
in
humidity
%
barometer
mb
20260510170549 47 0.0 0.0 0.00 0.00 0.00 99
20260510170544 47 190 3.0 6.0 0.00 0.00 0.00 90
20260510165537 46 0.0 0.0 0.00 0.00 0.00 99
20260510165532 44 191 3.0 6.0 0.00 0.00 0.00 93
20260510164528 46 0.0 0.0 0.00 0.00 0.00 99
20260510164524 45 177 2.0 3.0 0.00 0.00 0.00 89
20260510163535 47 0.0 0.0 0.00 0.00 0.00 99
20260510163532 46 179 2.0 3.0 0.00 0.00 0.00 89
20260510162524 46 188 2.0 5.0 0.00 0.00 0.00 89
20260510161532 47 179 2.0 3.0 0.00 0.00 0.00 89
20260510160524 47 186 2.0 5.0 0.00 0.00 0.00 89
20260510160522 47 0.0 0.0 0.00 0.00 0.00 99
20260510155532 46 191 2.0 3.0 0.00 0.00 0.00 91
20260510155530 47 0.0 0.0 0.00 0.00 0.00 99
20260510154557 47 0.0 0.0 0.00 0.00 0.00 99
20260510154544 46 192 2.0 3.0 0.00 0.00 0.00 91
20260510153532 47 183 1.0 2.0 0.00 0.00 0.00 90
20260510153527 47 0.0 0.0 0.00 0.00 0.00 99
20260510152534 47 0.0 0.0 0.00 0.00 0.00 99
20260510152524 47 185 3.0 6.0 0.00 0.00 0.00 94
20260510151531 46 185 2.0 3.0 0.00 0.00 0.00 96
20260510151524 46 0.0 0.0 0.00 0.00 0.00 99
20260510150531 46 0.0 0.0 0.00 0.00 0.00 99
20260510150524 46 184 2.0 3.0 0.00 0.00 0.00 96
20260510145532 46 184 2.0 2.0 0.00 0.00 0.00 96
20260510145521 46 0.0 0.0 0.00 0.00 0.00 99
20260510144529 47 0.0 0.0 0.00 0.00 0.00 99
20260510144524 46 173 2.0 3.0 0.00 0.00 0.00 96
20260510143536 47 0.0 0.0 0.00 0.00 0.00 99
20260510143532 46 188 1.0 2.0 0.00 0.00 0.00 96
20260510142526 47 0.0 0.0 0.00 0.00 0.00 99
20260510142524 46 179 2.0 2.0 0.00 0.00 0.00 96
20260510141534 47 0.0 0.0 0.00 0.00 0.00 99
20260510140524 47 173 2.0 3.0 0.00 0.00 0.00 95
20260510135532 47 174 2.0 5.0 0.00 0.00 0.00 94
20260510134524 48 184 1.0 2.0 0.00 0.00 0.00 92
20260510134520 48 0.0 0.0 0.00 0.00 0.00 99
20260510133552 49 174 2.0 3.0 0.00 0.00 0.00 92
20260510133549 49 0.0 0.0 0.00 0.00 0.00 99
20260510132536 49 0.0 0.0 0.00 0.00 0.00 99
20260510132524 49 180 1.0 3.0 0.00 0.00 0.00 92
20260510131545 49 0.0 0.0 0.00 0.00 0.00 99
20260510131532 49 173 2.0 5.0 0.00 0.00 0.00 92
20260510130533 49 0.0 0.0 0.00 0.00 0.00 99
20260510130524 49 165 2.0 5.0 0.00 0.00 0.00 92
20260510125532 49 170 2.0 3.0 0.00 0.00 0.00 93
20260510125522 49 0.0 0.0 0.00 0.00 0.00 99
20260510124531 50 0.0 0.0 0.00 0.00 0.00 99
20260510124525 50 176 2.0 3.0 0.00 0.00 0.00 93
20260510123531 50 163 2.0 5.0 0.00 0.00 0.00 93
20260510123520 50 0.0 0.0 0.00 0.00 0.00 99
20260510122528 50 0.0 0.0 0.00 0.00 0.00 99
20260510122524 49 169 2.0 3.0 0.00 0.00 0.00 93
20260510121537 50 0.0 0.0 0.00 0.00 0.00 99
20260510121533 50 167 2.0 6.0 0.00 0.00 0.00 93
20260510120525 50 0.0 0.0 0.00 0.00 0.00 99
20260510115532 50 170 2.0 3.0 0.00 0.00 0.00 93
20260510114545 50 157 2.0 5.0 0.00 0.00 0.00 93
20260510113532 50 160 2.0 3.0 0.00 0.00 0.00 93
20260510112544 51 160 2.0 3.0 0.00 0.00 0.00 92
20260510111533 51 158 2.0 5.0 0.00 0.00 0.00 92
20260510111031 51 0.0 0.0 0.00 0.00 0.00 99
20260510110524 51 162 2.0 5.0 0.00 0.00 0.00 91
20260510110020 51 0.0 0.0 0.00 0.00 0.00 99
20260510105532 51 163 3.0 7.0 0.00 0.00 0.00 91
20260510105028 51 0.0 0.0 0.00 0.00 0.00 99
20260510104524 51 164 3.0 5.0 0.00 0.00 0.00 91
20260510104036 51 0.0 0.0 0.00 0.00 0.00 99
20260510103532 51 162 2.0 6.0 0.00 0.00 0.00 91
20260510103025 51 0.0 0.0 0.00 0.00 0.00 99
20260510102525 51 148 2.0 5.0 0.00 0.00 0.00 91
20260510102034 51 0.0 0.0 0.00 0.00 0.00 99
20260510101532 51 158 2.0 5.0 0.00 0.00 0.00 90
20260510100524 51 162 2.0 5.0 0.00 0.00 0.00 90
20260510095532 51 180 1.0 3.0 0.00 0.00 0.00 89
20260510094524 51 179 2.0 3.0 0.00 0.00 0.00 88
20260510093552 52 155 2.0 5.0 0.00 0.00 0.00 87
20260510092525 52 137 3.0 8.0 0.00 0.00 0.00 87
20260510091532 53 152 3.0 7.0 0.00 0.00 0.00 86
20260510090524 53 145 3.0 7.0 0.00 0.00 0.00 86
20260510085552 53 148 3.0 7.0 0.00 0.00 0.00 85
20260510085031 53 0.0 0.0 0.00 0.00 0.00 99
20260510084524 53 142 3.0 5.0 0.00 0.00 0.00 85
20260510083532 53 137 3.0 6.0 0.00 0.00 0.00 84
20260510082524 54 128 4.0 8.0 0.00 0.00 0.00 84
20260510081532 54 137 3.0 8.0 0.00 0.00 0.00 83
20260510080525 54 118 3.0 8.0 0.00 0.00 0.00 83
20260510075553 55 119 3.0 7.0 0.00 0.00 0.00 81
20260510074526 55 0.0 0.0 0.00 0.00 0.00 99
20260510074524 55 138 3.0 9.0 0.00 0.00 0.00 80
20260510073533 56 0.0 0.0 0.00 0.00 0.00 99
20260510072524 56 103 4.0 8.0 0.00 0.00 0.00 78
20260510071553 57 91 4.0 9.0 0.00 0.00 0.00 76
20260510070524 58 98 3.0 7.0 0.00 0.00 0.00 74
20260510065532 58 98 3.0 6.0 0.00 0.00 0.00 71
20260510064524 59 94 3.0 8.0 0.00 0.00 0.00 65
20260510063552 60 63 1.0 5.0 0.00 0.00 0.00 61
20260510062524 61 64 2.0 6.0 0.00 0.00 0.00 59
20260510061532 63 51 2.0 8.0 0.00 0.00 0.00 57
20260510061159 66 0.0 0.0 0.00 0.00 0.00 99
20260510060525 63 16 1.0 3.0 0.00 0.00 0.00 56
20260510060054 66 0.0 0.0 0.00 0.00 0.00 99
20260510055533 63 35 1.0 5.0 0.00 0.00 0.00 56
20260510055329 67 0.0 0.0 0.00 0.00 0.00 99
20260510054544 64 43 3.0 6.0 0.00 0.00 0.00 56
20260510054031 69 0.0 0.0 0.00 0.00 0.00 99
20260510053532 64 61 1.0 3.0 0.00 0.00 0.00 55
20260510053101 69 0.0 0.0 0.00 0.00 0.00 99
20260510052525 65 351 1.0 5.0 0.00 0.00 0.00 54
20260510052029 69 0.0 0.0 0.00 0.00 0.00 99
20260510051534 65 42 2.0 5.0 0.00 0.00 0.00 54
20260510051057 69 0.0 0.0 0.00 0.00 0.00 99
20260510050525 65 69 1.0 5.0 0.00 0.00 0.00 54
20260510050026 70 0.0 0.0 0.00 0.00 0.00 99
20260510045612 65 289 1.0 3.0 0.00 0.00 0.00 54
20260510044524 65 340 2.0 5.0 0.00 0.00 0.00 54
20260510043533 65 13 2.0 6.0 0.00 0.00 0.00 52
20260510042524 65 85 2.0 3.0 0.00 0.00 0.00 52
20260510041532 64 322 1.0 5.0 0.00 0.00 0.00 54
20260510040524 66 49 1.0 3.0 0.00 0.00 0.00 51
20260510035532 64 289 2.0 5.0 0.00 0.00 0.00 53
20260510034525 64 55 2.0 6.0 0.00 0.00 0.00 56
20260510034052 0 0.0 0.0 0.00 0.00 0.00
20260510033553 64 51 2.0 6.0 0.00 0.00 0.00 55
20260510032526 70 0.0 0.0 0.00 0.00 0.00 99
20260510031553 70 0.0 0.0 0.00 0.00 0.00 99
20260510031533 66 277 2.0 5.0 0.00 0.00 0.00 52
20260510030524 71 0.0 0.0 0.00 0.00 0.00 99
20260510025532 64 314 3.0 6.0 0.00 0.00 0.00 55
20260510024529 64 262 3.0 7.0 0.00 0.00 0.00 56
20260510024521 71 0.0 0.0 0.00 0.00 0.00 99
20260510024025 70 0.0 0.0 0.00 0.00 0.00 99
20260510023533 63 242 1.0 3.0 0.00 0.00 0.00 54
20260510022537 71 0.0 0.0 0.00 0.00 0.00 99
20260510022524 62 218 2.0 5.0 0.00 0.00 0.00 55
20260510021533 62 201 1.0 3.0 0.00 0.00 0.00 56
20260510021526 70 0.0 0.0 0.00 0.00 0.00 99
20260510020534 70 0.0 0.0 0.00 0.00 0.00 99
20260510020525 61 143 2.0 5.0 0.00 0.00 0.00 57
20260510015542 71 0.0 0.0 0.00 0.00 0.00 99
20260510015532 61 166 2.0 5.0 0.00 0.00 0.00 57
20260510014531 71 0.0 0.0 0.00 0.00 0.00 99
20260510014525 61 179 0.0 2.0 0.00 0.00 0.00 57
20260510013552 61 167 1.0 3.0 0.00 0.00 0.00 55
20260510013521 70 0.0 0.0 0.00 0.00 0.00 99
20260510012548 71 0.0 0.0 0.00 0.00 0.00 99
20260510012545 61 178 0.0 1.0 0.00 0.00 0.00 56
20260510011615 69 0.0 0.0 0.00 0.00 0.00 99
20260510010544 68 0.0 0.0 0.00 0.00 0.00 99
20260510010525 60 184 0.0 2.0 0.00 0.00 0.00 58
20260510005611 68 0.0 0.0 0.00 0.00 0.00 99
20260510005533 60 175 1.0 3.0 0.00 0.00 0.00 59
20260510004545 60 166 2.0 3.0 0.00 0.00 0.00 61
20260510004541 67 0.0 0.0 0.00 0.00 0.00 99
20260510003533 59 177 1.0 2.0 0.00 0.00 0.00 63
20260510003531 68 0.0 0.0 0.00 0.00 0.00 99
20260510002525 60 173 1.0 3.0 0.00 0.00 0.00 64
20260510002521 67 0.0 0.0 0.00 0.00 0.00 99
20260510001553 58 177 1.0 2.0 0.00 0.00 0.00 66
20260510001549 67 0.0 0.0 0.00 0.00 0.00 99
20260510000536 64 0.0 0.0 0.00 0.00 0.00 99
20260510000524 58 177 1.0 2.0 0.00 0.00 0.00 67
20260509235644 59 0.0 0.0 0.00 0.00 0.00 99
20260509235533 56 175 1.0 2.0 0.00 0.00 0.00 71
20260509234533 59 0.0 0.0 0.00 0.00 0.00 99
20260509234526 54 178 1.0 3.0 0.00 0.00 0.00 76
20260509233532 53 175 1.0 3.0 0.00 0.00 0.00 78
20260509233523 58 0.0 0.0 0.00 0.00 0.00 99
20260509232530 56 0.0 0.0 0.00 0.00 0.00 99
20260509232526 51 174 1.0 2.0 0.00 0.00 0.00 80
20260509231533 51 178 1.0 3.0 0.00 0.00 0.00 81
20260509231520 55 0.0 0.0 0.00 0.00 0.00 99
20260509230606 55 0.0 0.0 0.00 0.00 0.00 99
20260509230525 51 176 1.0 2.0 0.00 0.00 0.00 80
20260509225535 53 0.0 0.0 0.00 0.00 0.00 99
20260509225533 50 184 1.0 2.0 0.00 0.00 0.00 81
20260509224543 52 0.0 0.0 0.00 0.00 0.00 99
20260509224525 49 181 1.0 2.0 0.00 0.00 0.00 82
20260509224201 50 0.0 0.0 0.00 0.00 0.00 99
20260509223533 48 189 1.0 2.0 0.00 0.00 0.00 84
20260509222524 47 185 1.0 2.0 0.00 0.00 0.00 86
20260509222522 49 0.0 0.0 0.00 0.00 0.00 99
20260509221553 45 185 0.0 2.0 0.00 0.00 0.00 89
20260509221550 48 0.0 0.0 0.00 0.00 0.00 99
20260509220537 46 0.0 0.0 0.00 0.00 0.00 99
20260509220525 44 183 1.0 2.0 0.00 0.00 0.00 90
20260509215532 43 184 1.0 3.0 0.00 0.00 0.00 92
20260509215527 44 0.0 0.0 0.00 0.00 0.00 99
20260509214535 43 0.0 0.0 0.00 0.00 0.00 99
20260509214524 42 183 1.0 5.0 0.00 0.00 0.00 95
20260509213533 41 188 1.0 2.0 0.00 0.00 0.00 97
20260509212525 40 187 1.0 2.0 0.00 0.00 0.00 97
20260509211533 40 184 1.0 3.0 0.00 0.00 0.00 97
20260509210546 39 184 1.0 3.0 0.00 0.00 0.00 97
20260509205553 39 188 1.0 2.0 0.00 0.00 0.00 97
20260509205023 39 0.0 0.0 0.00 0.00 0.00 99
20260509204546 39 188 1.0 2.0 0.00 0.00 0.00 97
20260509204030 39 0.0 0.0 0.00 0.00 0.00 99
20260509203533 39 188 1.0 2.0 0.00 0.00 0.00 97
20260509203040 39 0.0 0.0 0.00 0.00 0.00 99
20260509202525 38 188 2.0 2.0 0.00 0.00 0.00 97
20260509202027 39 0.0 0.0 0.00 0.00 0.00 99
20260509201554 38 185 2.0 3.0 0.00 0.00 0.00 97
20260509201036 39 0.0 0.0 0.00 0.00 0.00 99
20260509200525 38 187 1.0 2.0 0.00 0.00 0.00 96
20260509200025 39 0.0 0.0 0.00 0.00 0.00 99
20260509195533 38 186 1.0 3.0 0.00 0.00 0.00 96
20260509195033 39 0.0 0.0 0.00 0.00 0.00 99
20260509194545 39 188 1.0 2.0 0.00 0.00 0.00 96
20260509194022 40 0.0 0.0 0.00 0.00 0.00 99
20260509193553 39 186 2.0 2.0 0.00 0.00 0.00 95
20260509193029 40 0.0 0.0 0.00 0.00 0.00 99
20260509192545 40 183 2.0 3.0 0.00 0.00 0.00 95
20260509192019 41 0.0 0.0 0.00 0.00 0.00 99
20260509191553 40 186 2.0 3.0 0.00 0.00 0.00 95
20260509191027 41 0.0 0.0 0.00 0.00 0.00 99
20260509190524 41 188 1.0 1.0 0.00 0.00 0.00 95
20260509190035 41 0.0 0.0 0.00 0.00 0.00 99
20260509185614 41 184 2.0 3.0 0.00 0.00 0.00 96
20260509185024 41 0.0 0.0 0.00 0.00 0.00 99
20260509184545 40 185 2.0 3.0 0.00 0.00 0.00 96
20260509184032 41 0.0 0.0 0.00 0.00 0.00 99
20260509183533 41 188 2.0 5.0 0.00 0.00 0.00 96
20260509183022 41 0.0 0.0 0.00 0.00 0.00 99
20260509182526 40 187 2.0 3.0 0.00 0.00 0.00 97
20260509182030 41 0.0 0.0 0.00 0.00 0.00 99
20260509181532 40 186 2.0 3.0 0.00 0.00 0.00 97
20260509181038 41 0.0 0.0 0.00 0.00 0.00 99
20260509180525 40 186 2.0 3.0 0.00 0.00 0.00 97
20260509180026 41 0.0 0.0 0.00 0.00 0.00 99
20260509175533 40 186 2.0 3.0 0.00 0.00 0.00 97
20260509175054 41 0.0 0.0 0.00 0.00 0.00 99
20260509174525 40 187 2.0 3.0 0.00 0.00 0.00 97
20260509174024 40 0.0 0.0 0.00 0.00 0.00 99
20260509173533 40 189 1.0 2.0 0.00 0.00 0.00 97
20260509173032 40 0.0 0.0 0.00 0.00 0.00 99
20260509172526 39 188 2.0 3.0 0.00 0.00 0.00 97
20260509172021 40 0.0 0.0 0.00 0.00 0.00 99
20260509171533 39 188 1.0 2.0 0.00 0.00 0.00 97
20260509171029 40 0.0 0.0 0.00 0.00 0.00 99